Weather History for TNCB - December, 2014

Change the Weather History Date:

Sunday, December 28, 2014

  Actual Average Record
Temperature  
Mean Temperature 81 °F -  
Max Temperature 84 °F 84 °F 89 °F (2006)
Min Temperature 78 °F 77 °F 75 °F (2004)
Cooling Degree Days 16    
Growing Degree Days 31 (Base 50)    
Moisture  
Dew Point 74 °F    
Average Humidity 80    
Maximum Humidity 83    
Minimum Humidity 74    
Precipitation  
Precipitation 0.00 in - - ()
Sea Level Pressure  
Sea Level Pressure 29.93 in    
Wind  
Wind Speed 14 mph ()    
Max Wind Speed 21 mph    
Max Gust Speed -    
Visibility 6.2 miles    
Events      
Averages and records for this station are not official NWS values.
T = Trace of Precipitation, MM = Missing Value Source: Averaged Metar Reports

Daily Weather History Graph

Daily Weather History Graph

Search for Another Location

Airport or City:

Trip Planner

Search our weather history database for the weather conditions in past years. The results will help you decide how hot, cold, wet, or windy it might be!

Date:

Astronomy

Dec. 28, 2014 Rise Set
Actual Time 6:52 AM AST 6:17 PM AST
Civil Twilight 6:29 AM AST 6:40 PM AST
Nautical Twilight 6:02 AM AST 7:06 PM AST
Astronomical Twilight 5:36 AM AST 7:33 PM AST
Moon 12:22 PM AST (12/28) No Moon Set
Length of Visible Light 12h 11m
Length of Day
11h 25m
Waxing Crescent, 49% of the Moon is Illuminated
Dec 28
Waxing Crescent
Dec 28
First Quarter
Jan 5
Full
Jan 13
Last Quarter
Jan 20
New

Hourly Weather History & Observations

Time (AST) Temp. Heat Index Dew Point Humidity Pressure Visibility Wind Dir Wind Speed Gust Speed Precip Events Conditions
12:00 AM 80.6 °F 85.4 °F 73.4 °F 79% 29.98 in 6.2 mi NE 15.0 mph - N/A   Scattered Clouds
1:00 AM 80.6 °F 85.4 °F 73.4 °F 79% 29.95 in 6.2 mi NE 12.7 mph - N/A   Scattered Clouds
2:00 AM 78.8 °F - 73.4 °F 83% 29.95 in 6.2 mi NE 13.8 mph - N/A   Scattered Clouds
3:00 AM 78.8 °F - 73.4 °F 83% 29.92 in - NE 12.7 mph - N/A   Unknown
4:00 AM 78.8 °F - 71.6 °F 78% 29.92 in - NE 12.7 mph - N/A   Unknown
5:00 AM 78.8 °F - 73.4 °F 83% 29.92 in - NE 15.0 mph - N/A   Unknown
6:00 AM 78.8 °F - 73.4 °F 83% 29.92 in - NE 15.0 mph - N/A   Unknown
7:00 AM 78.8 °F - 73.4 °F 83% 29.95 in - NE 13.8 mph - N/A   Unknown
8:00 AM 78.8 °F - 73.4 °F 83% 29.95 in 6.2 mi ENE 17.3 mph - N/A   Scattered Clouds
9:00 AM 82.4 °F 89.5 °F 75.2 °F 79% 29.98 in 6.2 mi ENE 20.7 mph - N/A   Scattered Clouds
10:00 AM 84.2 °F 94.1 °F 77.0 °F 79% 29.98 in 6.2 mi ENE 19.6 mph - N/A   Scattered Clouds
11:00 AM 84.2 °F 92.3 °F 75.2 °F 74% 29.98 in 6.2 mi ENE 20.7 mph - N/A   Scattered Clouds
12:00 PM 84.2 °F 94.1 °F 77.0 °F 79% 29.98 in 6.2 mi ENE 19.6 mph - N/A   Scattered Clouds
1:00 PM 78.8 °F - 73.4 °F 83% 29.95 in 6.2 mi East 10.4 mph - N/A   Mostly Cloudy
2:00 PM 84.2 °F 94.1 °F 77.0 °F 79% 29.89 in - ENE 18.4 mph - N/A   Unknown
3:00 PM 82.4 °F 89.5 °F 75.2 °F 79% 29.89 in 6.2 mi ENE 20.7 mph - N/A   Mostly Cloudy
4:00 PM 82.4 °F 88.2 °F 73.4 °F 74% 29.89 in 6.2 mi ENE 18.4 mph - N/A   Scattered Clouds
5:00 PM 82.4 °F 88.2 °F 73.4 °F 74% 29.89 in 6.2 mi NE 18.4 mph - N/A   Scattered Clouds
6:00 PM 80.6 °F 85.4 °F 73.4 °F 79% 29.89 in 6.2 mi ENE 15.0 mph - N/A   Mostly Cloudy
7:00 PM 80.6 °F 85.4 °F 73.4 °F 79% 29.89 in 6.2 mi ENE 16.1 mph - N/A   Scattered Clouds
8:00 PM 78.8 °F - 73.4 °F 83% 29.92 in 6.2 mi NE 13.8 mph - N/A   Scattered Clouds
9:00 PM 78.8 °F - 73.4 °F 83% 29.95 in - ENE 16.1 mph - N/A   Unknown
10:00 PM 78.8 °F - 73.4 °F 83% 29.95 in - NE 16.1 mph - N/A   Unknown
11:00 PM 78.8 °F - 73.4 °F 83% 29.95 in - ENE 13.8 mph - N/A   Unknown